Zurück zum Katalog

COSMOS 422 DEB

AktivLEO
NORAD 38531·DEBRIS·🇷🇺 Russia

Gestartet May 22, 1971 von Plesetsk Cosmodrome

Loading…

Nächste Überflüge (nächste 24 Stunden)

TLE

AktuellSource: Space-Track

Epoche: Sep 14, 2026, 21:09 UTC

1 38531U 71046C   26257.88147578  .00000223  00000-0  25106-3 0  9992
2 38531  74.0200 333.1548 0016712 290.4598  69.4728 13.76501240655311

Verfolge COSMOS 422 DEB in Echtzeit mit AllMySat

Download on the App Store